This is the latest recevied weather packets stored in our database for station/object N0FDH. If no packets are shown the sender has not sent any weather packets the latest 10 day(s).
| Time | Temp. | Humidity | Pressure | Rain* | Wind** | Luminosity | Snow |
|---|---|---|---|---|---|---|---|
| 1777859538 | 13.89° C | 41% | 1003.2 hPa | 0 mm | - | 0 W/m² | - |
| 1777859234 | 14.44° C | 41% | 1003.2 hPa | 0 mm | - | 0 W/m² | - |
| 1777858931 | 14.44° C | 40% | 1003.2 hPa | 0 mm | - | 0 W/m² | - |
| 1777858629 | 15° C | 38% | 1003.3 hPa | 0 mm | - | 0 W/m² | - |
| 1777858326 | 15° C | 35% | 1003.4 hPa | 0 mm | - | 0 W/m² | - |
| 1777858022 | 15.56° C | 37% | 1003.3 hPa | 0 mm | - | 1 W/m² | - |
| 1777857720 | 15.56° C | 35% | 1003.3 hPa | 0 mm | - | 1 W/m² | - |
| 1777857417 | 16.11° C | 35% | 1003.3 hPa | 0 mm | - | 2 W/m² | - |
| 1777857114 | 16.11° C | 33% | 1003.3 hPa | 0 mm | - | 3 W/m² | - |
| 1777856809 | 16.67° C | 33% | 1003.2 hPa | 0 mm | - | 4 W/m² | - |
| 1777856505 | 16.67° C | 32% | 1003.3 hPa | 0 mm | - | 6 W/m² | - |
| 1777856203 | 16.67° C | 32% | 1003.2 hPa | 0 mm | - | 7 W/m² | - |
| 1777855899 | 17.22° C | 32% | 1003.4 hPa | 0 mm | - | 15 W/m² | - |
| 1777855598 | 17.22° C | 34% | 1003.5 hPa | 0 mm | - | 23 W/m² | - |
| 1777855294 | 17.78° C | 35% | 1003.5 hPa | 0 mm | - | 24 W/m² | - |
| 1777854990 | 17.78° C | 33% | 1003.6 hPa | 0 mm | - | 23 W/m² | - |
| 1777854687 | 17.78° C | 34% | 1003.6 hPa | 0 mm | - | 22 W/m² | - |
| 1777854384 | 17.78° C | 32% | 1003.8 hPa | 0 mm | - | 22 W/m² | - |
| 1777854081 | 17.78° C | 32% | 1003.7 hPa | 0 mm | - | 20 W/m² | - |
| 1777853779 | 18.33° C | 31% | 1003.8 hPa | 0 mm | - | 25 W/m² | - |
| 1777853475 | 18.33° C | 29% | 1004 hPa | 0 mm | - | 33 W/m² | - |
| 1777853173 | 18.33° C | 33% | 1004.1 hPa | 0 mm | - | 57 W/m² | - |
| 1777852870 | 17.78° C | 32% | 1003.9 hPa | 0 mm | - | 66 W/m² | - |
| 1777852568 | 17.78° C | 33% | 1003.9 hPa | 0 mm | - | 23 W/m² | - |
| 1777852264 | 18.33° C | 30% | 1003.8 hPa | 0 mm | - | 20 W/m² | - |
* Rain latest hour (hover to see other rain measurements)
** Current wind speed in m/s (hover to see current wind gust speed)